User: anonymous
Location: Caltech
(34.1382°N, 118.1253°W)
Time: 22:58:54
(UTC-07:00)
Language:

SL-08 R/B - Orbit

View from above orbital plane
View from above orbital plane
View from above satellite
View from above satellite

Ground track
Ground track

The orbit data is extracted from the following two-line orbital elements,

1 27561U 02054C   14273.82518624  .00000338  00000-0  87973-4 0  3069
2 27561 098.1215 050.9039 0046408 003.5765 154.4141 14.54979518628237
Epoch (UTC): 30 September 2014 19:48:16
Eccentricity: 0.0046408
inclination: 98.1215°
perigee height: 676 km
apogee height: 742 km
right ascension of ascending node: 50.9039°
argument of perigee: 3.5765°
revolutions per day: 14.54979518
mean anomaly at epoch: 154.4141°
orbit number at epoch: 62823

The dashed part of the orbit path shows where the satellite is in the earth's shadow,  

DLR